Regional Weather Roundup
Issued by NWS

Home | Current Version | Previous Version | Graphics & Text | Print | Product List | Glossary On
Versions: 1 2 3 4 5 6 7 8 9 10 11 12 13 14 15 16 17 18 19 20 21 22 23 24 25 26 27 28 29 30 31 32 33 34 35 36 37 38 39 40 41 42 43 44 45 46 47 48
000
ASUS45 KBOI 040610
RWRID
WEATHER ROUNDUP FOR IDAHO
NATIONAL WEATHER SERVICE BOISE ID
1200 AM MDT MON MAY 04 2015

NOTE: "FAIR" INDICATES FEW OR NO CLOUDS BELOW 12000 FEET
WITH NO SIGNIFICANT WEATHER AND/OR OBSTRUCTIONS TO VISIBILITY

IDZ012-014-040700-
SOUTHWEST IDAHO


CITY           SKY/WX    TMP DP  RH WIND       PRES   REMARKS
BOISE          CLEAR     57  30  35 SE5       29.82S
CALDWELL       CLEAR     59  34  38 W5        29.83R
MOUNTAIN HOME  CLEAR     54  28  36 NW8       29.83R
$$

IDZ016-017-040700-
SOUTHCENTRAL IDAHO


CITY           SKY/WX    TMP DP  RH WIND       PRES   REMARKS
BURLEY         MOCLDY    59  39  47 N5        29.87R
JEROME         PTCLDY    58  40  51 SE9       29.88F
TWIN FALLS     PTCLDY    60  40  47 S13       29.88S
$$

IDZ019>023-040700-
SOUTHEAST IDAHO


CITY           SKY/WX    TMP DP  RH WIND       PRES   REMARKS
IDAHO FALLS    PTCLDY    48  42  80 N6        29.95S
POCATELLO      CLEAR     57  40  52 E10       29.92S
REXBURG        PTCLDY    51  40  65 NE7       29.96S
$$

IDZ006-010-011-018-031-032-040700-
CENTRAL IDAHO MOUNTAINS


CITY           SKY/WX    TMP DP  RH WIND       PRES   REMARKS
MCCALL         CLEAR     48  29  47 N8        29.92S
HAILEY         CLOUDY    50  36  57 W5        29.97R
STANLEY          N/A     38  26  62 SE5       30.01R WCI  34
SALMON         PTCLDY    46  30  53 CALM      29.90R
CHALLIS        PTCLDY    50  32  50 CALM      29.92R
$$

IDZ002-004-006-007-026-040700-
NORTHERN IDAHO


CITY           SKY/WX    TMP DP  RH WIND       PRES   REMARKS
LEWISTON       CLEAR     57  28  33 S7        29.85S
LOWELL           N/A     47  38  71 CALM      29.91R
COEUR D`ALENE  CLEAR     45  28  53 E3        29.90S
MULLAN PASS    CLEAR     46  17  31 CALM      29.97F
$$


USA.gov is the U.S. government's official web portal to all federal, state and local government web resources and services.